FLOCK 4Y-36 (55078 NORAD) Tracking and Keplerian Element Data

This shows tracking and keplerian element data for the satellite.

Feedback or suggestion? Click here.




ElementValue
Catalog55078
NameFLOCK 4Y-36
Epoch Orbit1871
Epoch Day126.16524833
Epoch Year2023
RAAN186.5542
Inclination97.4809
Eccentricity0.0015851
Argument of Perigee154.315
Mean Anonmoly205.8874
Mean Motion15.1765058
Decay Rate0.00013406
L11 55078U 23001BX 23126.16524833 .00013406 00000+0 66650-3 0 9996
L22 55078 97.4809 186.5542 0015851 154.3150 205.8874 15.17650580 18713



Live tracking and technical data element details for FLOCK 4Y-36 (NORAD 55078). FLOCK 4Y-36 can be tracked NOW for your location showing map with azimuth and elevation plus other details from your city location.







IsCatalogInMostPopularTable: catalog: 55078, numindb: -1

Insert: records affected: 1


GetName: 55078 FLOCK 4Y-36

Hit Count: inserted at: Mon, 05 Jun 2023 20:21:16 GMT